Weather History for PAKP - August, 2013

Change the Weather History Date:

Wednesday, August 21, 2013

  Actual Average Record
Temperature  
Mean Temperature 37 °F -  
Max Temperature 51 °F 48 °F 77 °F (2004)
Min Temperature 23 °F 34 °F 23 °F (1996)
Degree Days  
Heating Degree Days 28    
Moisture  
Dew Point 23 °F    
Average Humidity 59    
Maximum Humidity 80    
Minimum Humidity 37    
Precipitation  
Precipitation 0.00 in - - ()
Sea Level Pressure  
Sea Level Pressure 29.74 in    
Wind  
Wind Speed 7 mph (East)    
Max Wind Speed 13 mph    
Max Gust Speed -    
Visibility 10 miles    
Events      
Averages and records for this station are not official NWS values.
T = Trace of Precipitation, MM = Missing Value Source: NWS Daily Summary

Daily Weather History Graph

Daily Weather History Graph

Search for Another Location

Airport or City:

Trip Planner

Search our weather history database for the weather conditions in past years. The results will help you decide how hot, cold, wet, or windy it might be!

Date:

Astronomy

Aug. 21, 2013 Rise Set
Actual Time 5:52 AM AKDT 10:25 PM AKDT
Civil Twilight 4:31 AM AKDT 11:43 PM AKDT
Nautical Twilight 2:42 AM AKDT 1:37 AM AKDT
Astronomical Twilight Sun does not set Sun does not set
Moon 9:25 PM AKDT (8/21) 7:40 AM AKDT (8/21)
Length of Visible Light 19h 11m
Length of Day
16h 33m
Full, 99% of the Moon is Illuminated
Aug 21
Full
Aug 28
Last Quarter
Sep 5
New
Sep 12
First Quarter
Sep 19
Full

Hourly Weather History & Observations

Time (AKDT) Temp. Windchill Dew Point Humidity Pressure Visibility Wind Dir Wind Speed Gust Speed Precip Events Conditions
12:16 AM 28.4 °F 19.7 °F 21.2 °F 74% 29.82 in 10.0 mi ENE 9.2 mph - N/A   Scattered Clouds
12:36 AM 28.4 °F 21.2 °F 21.2 °F 74% 29.82 in 10.0 mi East 6.9 mph - N/A   Overcast
12:56 AM 28.4 °F 19.7 °F 21.2 °F 74% 29.81 in 10.0 mi ENE 9.2 mph - N/A   Overcast
1:16 AM 28.4 °F 21.2 °F 21.2 °F 74% 29.81 in 10.0 mi ENE 6.9 mph - N/A   Overcast
1:36 AM 28.4 °F 21.2 °F 21.2 °F 74% 29.81 in 10.0 mi East 6.9 mph - N/A   Overcast
1:56 AM 28.4 °F 22.2 °F 21.2 °F 74% 29.81 in 10.0 mi East 5.8 mph - N/A   Overcast
2:16 AM 28.4 °F 22.2 °F 21.2 °F 74% 29.81 in 10.0 mi ENE 5.8 mph - N/A   Overcast
2:36 AM 28.4 °F 21.2 °F 21.2 °F 74% 29.81 in 10.0 mi NE 6.9 mph - N/A   Overcast
2:56 AM 28.4 °F 23.3 °F 21.2 °F 74% 29.81 in 10.0 mi ENE 4.6 mph - N/A   Overcast
3:16 AM 28.4 °F 22.2 °F 21.2 °F 74% 29.81 in 10.0 mi NE 5.8 mph - N/A   Overcast
3:36 AM 28.4 °F 22.2 °F 21.2 °F 74% 29.81 in 10.0 mi NE 5.8 mph - N/A   Overcast
3:56 AM 28.4 °F 23.3 °F 21.2 °F 74% 29.80 in 10.0 mi NE 4.6 mph - N/A   Overcast
4:16 AM 28.4 °F 23.3 °F 21.2 °F 74% 29.80 in 10.0 mi NE 4.6 mph - N/A   Overcast
4:36 AM 28.4 °F 23.3 °F 21.2 °F 74% 29.80 in 10.0 mi North 4.6 mph - N/A   Overcast
4:56 AM 28.4 °F 23.3 °F 21.2 °F 74% 29.80 in 10.0 mi NNE 4.6 mph - N/A   Overcast
5:16 AM 26.6 °F 21.2 °F 19.4 °F 74% 29.80 in 10.0 mi NNW 4.6 mph - N/A   Mostly Cloudy
5:36 AM 26.6 °F 21.2 °F 19.4 °F 74% 29.79 in 10.0 mi NNW 4.6 mph - N/A   Mostly Cloudy
5:56 AM 24.8 °F - 19.4 °F 80% 29.80 in 10.0 mi Calm Calm - N/A   Clear
6:16 AM 24.8 °F 19.1 °F 17.6 °F 74% 29.79 in 10.0 mi South 4.6 mph - N/A   Clear
6:36 AM 23.0 °F 18.4 °F 17.6 °F 80% 29.79 in 10.0 mi SSW 3.5 mph - N/A   Clear
6:56 AM 23.0 °F 18.4 °F 17.6 °F 80% 29.79 in 10.0 mi WSW 3.5 mph - N/A   Clear
7:16 AM 24.8 °F 20.5 °F 19.4 °F 80% 29.78 in 10.0 mi South 3.5 mph - N/A   Clear
7:36 AM 26.6 °F 21.2 °F 17.6 °F 69% 29.78 in 10.0 mi South 4.6 mph - N/A   Clear
7:56 AM 26.6 °F 20.0 °F 19.4 °F 74% 29.77 in 10.0 mi SSW 5.8 mph - N/A   Clear
8:16 AM 26.6 °F 19.1 °F 19.4 °F 74% 29.77 in 10.0 mi South 6.9 mph - N/A   Clear
8:36 AM 26.6 °F 20.0 °F 19.4 °F 74% 29.77 in 10.0 mi South 5.8 mph - N/A   Clear
8:56 AM 30.2 °F 21.9 °F 21.2 °F 69% 29.77 in 10.0 mi South 9.2 mph - N/A   Clear
9:16 AM 30.2 °F 22.6 °F 21.2 °F 69% 29.77 in 10.0 mi SSW 8.1 mph - N/A   Clear
9:36 AM 32.0 °F 23.0 °F 21.2 °F 64% 29.76 in 10.0 mi South 11.5 mph - N/A   Clear
9:56 AM 33.8 °F 27.0 °F 23.0 °F 65% 29.76 in 10.0 mi SSW 8.1 mph - N/A   Clear
10:16 AM 33.8 °F 25.8 °F 23.0 °F 65% 29.76 in 10.0 mi SSW 10.4 mph - N/A   Clear
10:36 AM 35.6 °F 27.1 °F 23.0 °F 60% 29.75 in 10.0 mi South 12.7 mph - N/A   Clear
10:56 AM 35.6 °F 28.0 °F 23.0 °F 60% 29.75 in 10.0 mi South 10.4 mph - N/A   Clear
11:16 AM 37.4 °F 30.8 °F 24.8 °F 60% 29.75 in 10.0 mi SSW 9.2 mph - N/A   Clear
11:36 AM 39.2 °F 32.5 °F 24.8 °F 56% 29.74 in 10.0 mi SSW 10.4 mph - N/A   Clear
11:56 AM 39.2 °F 34.2 °F 24.8 °F 56% 29.74 in 10.0 mi SSW 6.9 mph - N/A   Clear
12:16 PM 41.0 °F 35.2 °F 24.8 °F 53% 29.74 in 10.0 mi South 9.2 mph - N/A   Clear
12:36 PM 42.8 °F 36.2 °F 24.8 °F 49% 29.73 in 10.0 mi South 12.7 mph - N/A   Clear
12:56 PM 42.8 °F 37.0 °F 24.8 °F 49% 29.73 in 10.0 mi South 10.4 mph - N/A   Clear
1:16 PM 44.6 °F 39.7 °F 24.8 °F 46% 29.73 in 10.0 mi SSW 9.2 mph - N/A   Clear
1:36 PM 44.6 °F 40.7 °F 24.8 °F 46% 29.73 in 10.0 mi SSW 6.9 mph - N/A   Clear
1:56 PM 46.4 °F 41.9 °F 24.8 °F 43% 29.73 in 10.0 mi South 9.2 mph - N/A   Clear
2:16 PM 46.4 °F 41.5 °F 26.6 °F 46% 29.72 in 10.0 mi SSW 10.4 mph - N/A   Clear
2:36 PM 48.2 °F - 24.8 °F 40% 29.72 in 10.0 mi South 8.1 mph - N/A   Clear
2:56 PM 48.2 °F - 24.8 °F 40% 29.72 in 2.5 mi SSW 8.1 mph - N/A   Clear
3:16 PM 48.2 °F - 26.6 °F 43% 29.71 in 10.0 mi South 5.8 mph - N/A   Clear
3:36 PM 48.2 °F - 26.6 °F 43% 29.71 in 10.0 mi ESE 3.5 mph - N/A   Clear
3:56 PM 48.2 °F - 26.6 °F 43% 29.71 in 10.0 mi ESE 3.5 mph - N/A   Clear
4:16 PM 50.0 °F - 26.6 °F 40% 29.70 in 10.0 mi Calm Calm - N/A   Clear
4:36 PM 50.0 °F - 24.8 °F 37% 29.70 in 10.0 mi East 4.6 mph - N/A   Clear
4:56 PM 51.8 °F - 26.6 °F 38% 29.69 in 10.0 mi Calm Calm - N/A   Clear
5:16 PM 51.8 °F - 26.6 °F 38% 29.69 in 10.0 mi Calm Calm - N/A   Clear
5:36 PM 51.8 °F - 26.6 °F 38% 29.69 in 10.0 mi North 4.6 mph - N/A   Clear
5:56 PM 51.8 °F - 26.6 °F 38% 29.68 in 9.0 mi NNE 6.9 mph - N/A   Clear
6:16 PM 51.8 °F - 26.6 °F 38% 29.68 in 10.0 mi ENE 4.6 mph - N/A   Clear
6:36 PM 51.8 °F - 26.6 °F 38% 29.68 in 10.0 mi NNE 6.9 mph - N/A   Clear
6:56 PM 51.8 °F - 26.6 °F 38% 29.68 in 10.0 mi NNE 9.2 mph - N/A   Clear
7:16 PM 50.0 °F - 26.6 °F 40% 29.68 in 10.0 mi NNE 9.2 mph - N/A   Clear
7:36 PM 48.2 °F - 26.6 °F 43% 29.68 in 10.0 mi NNE 9.2 mph - N/A   Clear
7:56 PM 48.2 °F - 26.6 °F 43% 29.68 in 10.0 mi NE 9.2 mph - N/A   Clear
8:16 PM 48.2 °F - 26.6 °F 43% 29.68 in 10.0 mi NNE 8.1 mph - N/A   Clear
8:36 PM 46.4 °F 41.9 °F 26.6 °F 46% 29.68 in 10.0 mi NE 9.2 mph - N/A   Clear
8:56 PM 46.4 °F 42.9 °F 26.6 °F 46% 29.68 in 10.0 mi ENE 6.9 mph - N/A   Clear
9:16 PM 44.6 °F 40.7 °F 26.6 °F 49% 29.68 in 10.0 mi ENE 6.9 mph - N/A   Clear
9:36 PM 42.8 °F 40.1 °F 26.6 °F 53% 29.68 in 10.0 mi NE 4.6 mph - N/A   Clear
9:56 PM 39.2 °F 37.0 °F 26.6 °F 61% 29.68 in 10.0 mi North 3.5 mph - N/A   Clear
10:16 PM 39.2 °F 37.0 °F 26.6 °F 61% 29.68 in 10.0 mi NNW 3.5 mph - N/A   Clear
10:36 PM 39.2 °F 37.0 °F 26.6 °F 61% 29.68 in 10.0 mi NNW 3.5 mph - N/A   Clear
10:56 PM 37.4 °F 33.8 °F 24.8 °F 60% 29.68 in 10.0 mi North 4.6 mph - N/A   Clear
11:16 PM 35.6 °F 31.7 °F 24.8 °F 65% 29.68 in 10.0 mi North 4.6 mph - N/A   Clear
11:36 PM 35.6 °F - 24.8 °F 65% 29.69 in 10.0 mi Calm Calm - N/A   Clear
11:56 PM 33.8 °F - 24.8 °F 70% 29.69 in 10.0 mi Calm Calm - N/A   Clear